Showing default

COSMOS 2165, 21779

Orbit data source: Space-Track

COSMOS 2165, 21779 is a payload satellite owned by UNKS RF (CIS) in LEO that was launched on Tue, 12 Nov 1991 UTC via a TSIKLON-3 launch vehicle from the Plesetsk Missile And Space Complex (PKMTR). Payload-class satellites include a variety of spacecraft equipped with specific instruments for various scientific and technological missions. These include communications satellites like Starlink; space stations such as the ISS; scientific satellites like the Hubble; Earth observation satellites from companies like Planet Labs, Umbra, and HawkEye 360; GPS; miniature CubeSats for education and research; and military/defense satellites.

Loading next visibility...
Identifier
21779, 1991-077A
Orbit
LEO
Country
Flag of CISCIS
Related business
Manufacturer
NPO PM
Mission
Defense Communications
Bus & Motor
STRELA-3, Unknown motor
Mass
225 kg wet, 225 kg dry
Launch date (UTC)
1991-11-12 (34 years ago)
Launch vehicle
TSIKLON-3
Launch site
Plesetsk Missile And Space Complex (PKMTR)
Object type
Payload
Rocket body
Debris
Shape & HBR
Cyl, 0.8 m
Radar Cross Section
1.257 m², Large (>1 m²)

Expand to show TLE details & history
Last TLE update: 15 hours ago

TLE from 15 hours ago
0 COSMOS 2165
1 21779U 91077A   25293.76449935  .00000026  00000-0  81915-4 0  9994
2 21779  82.6113  25.1453 0009789 235.2251 238.3398 12.64913141566726
Epoch: 2025-10-20T18:20Z
TLE epoch observation values (Epoch: 2025-10-20T18:20:52.743Z)
Latitude
65.53777°
Longitude
-116.01419°
Altitude
1,418.026 km
Speed
7.156 km/s
True Right ascension
12h 34m 40s
True Declination
65° 25' 08"
Sunlit
Object was in daylight at epoch
Visualization orbit readout
Latitude
Unknown
Longitude
Unknown
Altitude
Unknown
Speed
Unknown
Apparent Right ascension
Unknown
Apparent Declination
Unknown
Sunlit
N/A
Visualization observer readout
Local Sidereal Time
04:07:14
Azimuth
Unknown
Elevation
Unknown
Doppler factor
Unknown
Orbital elements
Apogee altitude
1,407.661 km
Perigee altitude
1,392.433 km
Semi-major axis
7,778.184 km
Eccentricity
0.00098
Inclination
82.6113°
RAAN
25.1453°
Arg. of periapsis
235.2251°
True anomaly
238.24438°
Mean anomaly
238.3398°
Eccentric anomaly
238.29208°
Mean motion
3.16392 °/min
Orbital period
113.78 mins
BSTAR
0.000081915
Loading maneuver chart data...
Computing Atmospheric mass density...
Loading historical data...
Loading historical data...
Loading historical data...
Loading historical data...
Loading historical data...
Loading historical data...
Loading historical data...

Documentation

Showing up to 5 results
|